[[{"header":{"parameterUnit":"m.s-1","parameterCategory":2,"la1":30.2991,"la2":30.254,"lo1":-89.0895,"lo2":-89.0444,"dy":0.0017,"dx":0.0017,"nx":28,"ny":28,"refTime":"2024-07-29T21:00:00:Z","depth":"0","parameterNumber":2,"parameterNumberName":"U-component_of_CURRENTS"},"data":[0,0,0,0,0,0,0,0,0,0,0,0,0,0,0,0,0,0,0,0,0,0,0,0,0,0,0,0,0,0,0,0,0,0,0,0,0,0,0,0,0,0,0,0,0,0,0,0,0,0,0,0,0,0,0,0,0,0,0.1867,0.1866,0,0.1779,0.1778,0.1777,0.1732,0.1732,0.1731,0.1731,0.1658,0.1656,0.1655,0,0,0,0,0,0,0,0,0,0,0,0,0,0.1906,0.1906,0.1867,0.1866,0.1865,0.1779,0.1778,0.1777,0.1732,0.1732,0.1731,0.1731,0.1659,0.1657,0.1654,0,0,0,0,0,0,0,0,0,0,0,0,0,0.1862,0.1906,0.1867,0.1831,0.1827,0.1779,0.1778,0.1777,0.1732,0.1732,0.1731,0.1731,0.1659,0.1657,0.1654,0.1641,0,0,0.1646,0.1644,0,0,0,0,0,0,0,0,0.1864,0.186,0.1838,0.1834,0.1829,0.1765,0.1765,0.1732,0.1732,0.1769,0.1731,0.1731,0.1695,0.1689,0.1674,0.1637,0.1634,0.1645,0.1644,0.1643,0.1642,0,0,0,0,0,0,0,0.1867,0.1863,0.1833,0.1837,0.1831,0.1788,0.1783,0.1758,0.1735,0.1766,0.1762,0.1751,0.1693,0.1677,0.1672,0.1633,0.1645,0.1643,0.1641,0.164,0.1609,0.161,0,0,0,0,0,0,0.1882,0.1867,0.1836,0.183,0.1846,0.1788,0.1782,0.1787,0.1735,0.1726,0.1751,0.1749,0.1682,0.1675,0.1669,0.1697,0.1643,0.164,0.1638,0.1608,0.1609,0.161,0,0,0,0,0,0,0.1883,0.1881,0.1839,0.1845,0.1836,0.1788,0.1793,0.1785,0.1775,0.1723,0.1715,0.175,0.1681,0.1673,0.1663,0.1692,0.1639,0.1636,0.1607,0.1608,0.161,0.1723,0,0,0,0,0,0,0.1885,0.1882,0.1892,0.1847,0.1837,0.1824,0.1793,0.1783,0.1767,0.1764,0.172,0.1712,0.168,0.1667,0.166,0.1688,0.1634,0.1606,0.1608,0.1609,0.1718,0.1728,0.1737,0,0,0,0,0,0.1887,0.19,0.1893,0.1889,0.1852,0.1825,0.1817,0.1781,0.1768,0.177,0.1744,0.1714,0.1672,0.1666,0.1657,0.1685,0.1605,0.1607,0.1609,0.1714,0.1726,0.1736,0,0,0,0,0,0,0.192,0.1895,0.1887,0.1892,0.1867,0.1817,0.1813,0.179,0.1769,0.1768,0.1724,0.1715,0.1713,0.1682,0.1676,0.1678,0.1634,0.1634,0.1717,0.1727,0.1736,0.176,0.1632,0,0,0,0,0,0.1933,0.1939,0.1906,0.1911,0.1904,0.1863,0.1848,0.1824,0.1797,0.1787,0.1757,0.1729,0.1712,0.1707,0.1677,0.1684,0.1725,0.1694,0.1703,0.1711,0.1724,0.1788,0.1805,0.1616,0.1616,0.1616,0,0,0.1944,0.1933,0.1934,0.1918,0.1898,0.1897,0.1854,0.1839,0.1842,0.1783,0.1785,0.1754,0.1717,0.1722,0.1719,0.1704,0.1804,0.1714,0.1721,0.1729,0.1792,0.1811,0.1828,0.1617,0.1617,0.1617,0,0,0.1973,0.1965,0.1983,0.197,0.1948,0.1923,0.1925,0.1887,0.1878,0.187,0.1834,0.1829,0.1792,0.1783,0.1772,0.1813,0.1842,0.18,0.1877,0.194,0.1957,0.1972,0.2135,0.2164,0.1815,0.1815,0.1816,0,0.1988,0.2009,0.1981,0.1996,0.1991,0.1943,0.196,0.1942,0.1906,0.1916,0.1886,0.1864,0.1825,0.1855,0.1865,0.1837,0.1911,0.1843,0.1957,0.1972,0.1985,0.2148,0.2178,0.1821,0.182,0.182,0.1819,0,0.2031,0.2046,0.2055,0.2063,0.2055,0.2058,0.2033,0.2033,0.2014,0.1999,0.2016,0.1973,0.197,0.1954,0.1919,0.1994,0.2036,0.1958,0.1939,0.2012,0.2179,0.2208,0.1829,0.1827,0.1826,0.1824,0,0,0.2067,0.2085,0.2088,0.2105,0.2093,0.2088,0.2109,0.2118,0.2146,0.2118,0.2169,0.213,0.2117,0.2103,0.2069,0.2113,0.2288,0.2087,0.2088,0.2272,0.2527,0.2584,0.2623,0.2236,0.224,0.2243,0.2638,0,0.2112,0.2156,0.2152,0.2187,0.2206,0.2185,0.2207,0.2209,0.2209,0.2244,0.2227,0.2247,0.2173,0.2188,0.2223,0.2242,0.2357,0.2194,0.2409,0.2418,0.2474,0.2653,0.2606,0.2954,0.2667,0.2672,0.2675,0,0.2157,0.218,0.2228,0.2258,0.2266,0.228,0.2317,0.2332,0.2369,0.2376,0.2406,0.2393,0.2459,0.2371,0.2523,0.2429,0.2508,0.2536,0.255,0.2575,0.2526,0.2813,0.3018,0.2866,0.272,0.2717,0.2713,0,0.2189,0.2232,0.2273,0.228,0.2306,0.2333,0.2349,0.2378,0.2405,0.2476,0.2516,0.2576,0.2622,0.2694,0.2746,0.2661,0.2936,0.2823,0.2986,0.2995,0.2981,0.2981,0.307,0.2987,0.2986,0.2985,0.2984,0,0.2231,0.2261,0.2293,0.2311,0.2356,0.2372,0.2425,0.2449,0.2511,0.2551,0.2591,0.2649,0.2695,0.2827,0.2866,0.3056,0.3059,0.3073,0.3103,0.3028,0.3027,0.2906,0.281,0.3,0.2997,0.2994,0.2991,0,0.2243,0.2272,0.2311,0.2354,0.2367,0.2395,0.2445,0.2483,0.2554,0.262,0.2655,0.2767,0.2936,0.3038,0.3199,0.3237,0.3308,0.3452,0.3417,0.3434,0.3391,0.3303,0.3335,0.3267,0.3725,0.3729,0.3732,0,0.2247,0.2272,0.2318,0.2332,0.2349,0.2392,0.2414,0.2484,0.2523,0.2667,0.2703,0.2914,0.3018,0.3354,0.3483,0.3708,0.3484,0.38,0.359,0.3457,0.3381,0.3143,0.3063,0.3675,0.3677,0.3679,0.3681,0,0.2234,0.2253,0.2277,0.2309,0.2335,0.2368,0.2415,0.245,0.2533,0.2621,0.2747,0.2865,0.3202,0.3387,0.371,0.3821,0.3601,0.385,0.3692,0.3365,0.3132,0.3057,0.3407,0.3699,0.3697,0.3696,0.3695,0.3694,0.2201,0.2208,0.2237,0.2266,0.2291,0.232,0.2327,0.2393,0.2466,0.2563,0.2714,0.2874,0.3188,0.3618,0.3746,0.3896,0.3753,0.3791,0.3725,0.3518,0.3334,0.3782,0.4077,0.4077,0.4077,0.4077,0.4078,0,0.2135,0.2159,0.2186,0.2207,0.221,0.2255,0.2298,0.2298,0.2346,0.2497,0.2613,0.2909,0.3189,0.3459,0.376,0.3735,0.3571,0.3644,0.3258,0.3207,0.3629,0.35,0.3701,0.3701,0.3701,0.3701,0.3701,0.3701,0.2099,0.2104,0.2131,0.2116,0.213,0.2112,0.2122,0.2147,0.223,0.2361,0.2507,0.2677,0.2978,0.3293,0.3429,0.3442,0.3161,0.309,0.3004,0.3238,0.3241,0.3244,0.3096,0.3209,0.3208,0.2462,0.2457,0.2453]},{"header":{"parameterUnit":"m.s-1","parameterCategory":2,"la1":30.2991,"la2":30.254,"lo1":-89.0895,"lo2":-89.0444,"dy":0.0017,"dx":0.0017,"nx":28,"ny":28,"refTime":"2024-07-29T21:00:00:Z","depth":"0","parameterNumber":3,"parameterNumberName":"V-component_of_CURRENTS"},"data":[0,0,0,0,0,0,0,0,0,0,0,0,0,0,0,0,0,0,0,0,0,0,0,0,0,0,0,0,0,0,0,0,0,0,0,0,0,0,0,0,0,0,0,0,0,0,0,0,0,0,0,0,0,0,0,0,0,0,-0.1057,-0.1058,0,-0.1131,-0.1132,-0.1133,-0.1162,-0.1161,-0.1161,-0.1161,-0.1289,-0.1292,-0.1295,0,0,0,0,0,0,0,0,0,0,0,0,0,-0.0948,-0.095,-0.1057,-0.1058,-0.1059,-0.1131,-0.1132,-0.1133,-0.1162,-0.1161,-0.1161,-0.1161,-0.1287,-0.1292,-0.1296,0,0,0,0,0,0,0,0,0,0,0,0,0,-0.1005,-0.095,-0.1056,-0.1083,-0.1086,-0.1131,-0.1132,-0.1133,-0.1162,-0.1161,-0.1161,-0.1161,-0.1286,-0.1291,-0.1296,-0.1331,0,0,-0.1312,-0.1314,0,0,0,0,0,0,0,0,-0.1001,-0.1008,-0.1078,-0.1081,-0.1085,-0.1138,-0.114,-0.1202,-0.1162,-0.1131,-0.1161,-0.1161,-0.1244,-0.1253,-0.1264,-0.1337,-0.1342,-0.1313,-0.1316,-0.1318,-0.1319,0,0,0,0,0,0,0,-0.0997,-0.1005,-0.1085,-0.1079,-0.1083,-0.1094,-0.1102,-0.1152,-0.1187,-0.1134,-0.1137,-0.1147,-0.1246,-0.1259,-0.1268,-0.1344,-0.1312,-0.1317,-0.132,-0.1322,-0.1454,-0.1454,0,0,0,0,0,0,-0.0991,-0.1002,-0.1082,-0.1087,-0.1044,-0.1096,-0.1105,-0.112,-0.1186,-0.1196,-0.1147,-0.1148,-0.125,-0.1262,-0.1272,-0.1308,-0.1318,-0.1323,-0.1326,-0.1454,-0.1454,-0.1455,0,0,0,0,0,0,-0.0989,-0.0998,-0.1079,-0.1047,-0.1058,-0.1098,-0.1115,-0.1122,-0.1137,-0.1196,-0.1206,-0.1156,-0.1251,-0.1265,-0.1316,-0.1313,-0.1325,-0.133,-0.1453,-0.1454,-0.1454,-0.1385,0,0,0,0,0,0,-0.0985,-0.0996,-0.1001,-0.1047,-0.106,-0.1101,-0.1116,-0.1123,-0.1144,-0.1146,-0.1207,-0.1218,-0.1252,-0.1308,-0.1321,-0.1321,-0.1334,-0.1453,-0.1454,-0.1454,-0.1386,-0.1383,-0.138,0,0,0,0,0,-0.0981,-0.0983,-0.1001,-0.101,-0.1066,-0.1101,-0.1108,-0.1135,-0.1145,-0.1149,-0.1191,-0.1217,-0.1322,-0.1313,-0.1328,-0.1329,-0.1452,-0.1453,-0.1454,-0.1388,-0.1383,-0.138,0,0,0,0,0,0,-0.0934,-0.0988,-0.1008,-0.1025,-0.106,-0.1106,-0.1111,-0.1135,-0.1171,-0.1174,-0.1227,-0.1242,-0.1281,-0.1321,-0.131,-0.137,-0.139,-0.1394,-0.1334,-0.1331,-0.1327,-0.1268,-0.1338,0,0,0,0,0,-0.0928,-0.0945,-0.0998,-0.101,-0.1027,-0.1071,-0.1087,-0.1109,-0.1149,-0.1164,-0.1208,-0.1256,-0.1298,-0.1326,-0.1368,-0.1409,-0.1387,-0.1419,-0.1416,-0.1412,-0.1375,-0.1369,-0.136,-0.1457,-0.1457,-0.1457,0,0,-0.0912,-0.0944,-0.0954,-0.1002,-0.1029,-0.1039,-0.1079,-0.1102,-0.1106,-0.1175,-0.1194,-0.1247,-0.1306,-0.1341,-0.1363,-0.1375,-0.1367,-0.1413,-0.141,-0.1374,-0.1368,-0.1358,-0.1349,-0.1458,-0.1458,-0.1458,0,0,-0.0878,-0.092,-0.0917,-0.0943,-0.0985,-0.1016,-0.1022,-0.1072,-0.1089,-0.1127,-0.1169,-0.1213,-0.1289,-0.1318,-0.1346,-0.1353,-0.1347,-0.1379,-0.1317,-0.1312,-0.1302,-0.1294,-0.1215,-0.12,-0.138,-0.138,-0.138,0,-0.085,-0.0861,-0.092,-0.092,-0.0929,-0.1001,-0.0989,-0.1023,-0.1081,-0.1086,-0.1123,-0.1201,-0.1268,-0.1285,-0.1293,-0.1341,-0.131,-0.1326,-0.1302,-0.1294,-0.1286,-0.1208,-0.1192,-0.1377,-0.1377,-0.1378,-0.1378,0,-0.0814,-0.082,-0.0819,-0.0844,-0.0865,-0.087,-0.0924,-0.0945,-0.0985,-0.1015,-0.1045,-0.1128,-0.1165,-0.1209,-0.1258,-0.1244,-0.1226,-0.1293,-0.1301,-0.1271,-0.1191,-0.1176,-0.1372,-0.1373,-0.1374,-0.1375,0,0,-0.0739,-0.0782,-0.0777,-0.0768,-0.0822,-0.0827,-0.0843,-0.0864,-0.0847,-0.0923,-0.0891,-0.0998,-0.1035,-0.1068,-0.1137,-0.1146,-0.1083,-0.1192,-0.1193,-0.1088,-0.1,-0.095,-0.0928,-0.1146,-0.1144,-0.1143,-0.095,0,-0.0682,-0.0658,-0.0699,-0.0668,-0.0659,-0.072,-0.0716,-0.0748,-0.0788,-0.0781,-0.0861,-0.0871,-0.0985,-0.0995,-0.1025,-0.1073,-0.1046,-0.1123,-0.1064,-0.106,-0.1001,-0.0911,-0.0889,-0.0713,-0.0935,-0.0933,-0.0931,0,-0.0617,-0.0612,-0.0572,-0.0567,-0.0565,-0.0556,-0.0549,-0.0557,-0.0584,-0.0607,-0.064,-0.0701,-0.0727,-0.083,-0.0853,-0.0895,-0.0923,-0.0957,-0.0953,-0.0913,-0.0983,-0.079,-0.0677,-0.0813,-0.0908,-0.091,-0.0911,0,-0.0524,-0.0513,-0.0474,-0.0475,-0.0489,-0.0466,-0.0468,-0.0493,-0.0479,-0.0481,-0.0458,-0.0517,-0.0517,-0.0586,-0.0687,-0.0758,-0.0676,-0.0793,-0.0748,-0.0742,-0.0711,-0.0707,-0.0702,-0.0762,-0.0762,-0.0763,-0.0764,0,-0.0443,-0.0405,-0.042,-0.0397,-0.0333,-0.0368,-0.0304,-0.0318,-0.0305,-0.0264,-0.035,-0.0314,-0.0461,-0.0465,-0.0575,-0.0579,-0.0584,-0.0674,-0.0684,-0.0684,-0.068,-0.0791,-0.0906,-0.0756,-0.0757,-0.0759,-0.076,0,-0.0352,-0.0364,-0.0315,-0.0304,-0.0291,-0.0242,-0.0209,-0.017,-0.0159,-0.0097,-0.0085,-0.0122,-0.0124,-0.023,-0.03,-0.04,-0.0486,-0.0439,-0.0386,-0.0393,-0.0515,-0.0627,-0.055,-0.0608,-0.0344,-0.0341,-0.0339,0,-0.0302,-0.0273,-0.0243,-0.0213,-0.0204,-0.0146,-0.0112,-0.0099,-0.0062,0.0012,0.0055,0.0093,0.0104,0.0076,-0.0077,-0.0154,-0.034,-0.0186,-0.0347,-0.0455,-0.0588,-0.0653,-0.0715,-0.0256,-0.0253,-0.0251,-0.0249,0,-0.0215,-0.0211,-0.0184,-0.0131,-0.0084,-0.0029,0.0024,0.0079,0.0106,0.0179,0.0271,0.0308,0.0293,0.0235,0.0146,0.0034,-0.0278,-0.0144,-0.0293,-0.0517,-0.0549,-0.0632,-0.0408,-0.023,-0.0232,-0.0234,-0.0235,-0.0235,-0.0156,-0.0124,-0.0104,-0.005,0.0003,0.0073,0.0141,0.02,0.0298,0.0435,0.0445,0.0584,0.0488,0.0361,0.0186,-0.0074,-0.0135,-0.0197,-0.0309,-0.035,-0.0456,-0.0141,0.0022,0.0021,0.0021,0.0021,0.002,0,-0.01,-0.008,-0.0029,0.0033,0.01,0.0113,0.0215,0.03,0.0431,0.0598,0.0708,0.083,0.0641,0.0418,0.0074,-0.0187,-0.034,-0.035,-0.0483,-0.0536,-0.027,-0.0323,-0.0186,-0.0185,-0.0185,-0.0185,-0.0185,-0.0185,-0.0069,-0.0025,-0.0009,0.0099,0.015,0.0263,0.0331,0.047,0.0616,0.0891,0.1079,0.1197,0.1091,0.0313,-0.0243,-0.0427,-0.0681,-0.068,-0.0815,-0.0715,-0.0712,-0.0709,-0.0786,-0.0747,-0.0748,-0.1038,-0.1041,-0.1044]}],[{"header":{"parameterUnit":"m.s-1","parameterCategory":2,"la1":30.2991,"la2":30.254,"lo1":-89.0895,"lo2":-89.0444,"dy":0.0017,"dx":0.0017,"nx":28,"ny":28,"refTime":"2024-07-29T21:00:00:Z","depth":"2","parameterNumber":2,"parameterNumberName":"U-component_of_CURRENTS"},"data":[0,0,0,0,0,0,0,0,0,0,0,0,0,0,0,0,0,0,0,0,0,0,0,0,0,0,0,0,0,0,0,0,0,0,0,0,0,0,0,0,0,0,0,0,0,0,0,0,0,0,0,0,0,0,0,0,0,0,0.0292,0.0292,0,0.0341,0.0341,0.0342,0.0352,0.0351,0.0351,0.0351,0.0402,0.0404,0.0405,0,0,0,0,0,0,0,0,0,0,0,0,0,0.0187,0.0189,0.0292,0.0292,0.0293,0.0341,0.0341,0.0342,0.0352,0.0351,0.0351,0.035,0.0402,0.0404,0.0406,0,0,0,0,0,0,0,0,0,0,0,0,0,0.0233,0.019,0.0292,0.0304,0.0306,0.0341,0.0341,0.0342,0.0352,0.0351,0.0351,0.035,0.0401,0.0403,0.0406,0.0431,0,0,0.0414,0.0415,0,0,0,0,0,0,0,0,0.0231,0.0237,0.0302,0.0303,0.0305,0.034,0.0323,0.0372,0.0352,0.0333,0.0351,0.035,0.0383,0.0387,0.0396,0.0433,0.0435,0.0414,0.0415,0.0416,0.0417,0,0,0,0,0,0,0,0.0227,0.0235,0.031,0.0302,0.0305,0.0301,0.0307,0.0333,0.036,0.0335,0.0336,0.0343,0.0383,0.0393,0.0397,0.0436,0.0414,0.0416,0.0417,0.0418,0.0587,0.059,0,0,0,0,0,0,0.0225,0.0232,0.0309,0.0312,0.0267,0.0303,0.031,0.0329,0.0359,0.0364,0.0343,0.0343,0.0389,0.0394,0.0399,0.0494,0.0416,0.0419,0.042,0.0584,0.0587,0.0591,0,0,0,0,0,0,0.0223,0.0232,0.0307,0.0273,0.0282,0.0306,0.0327,0.033,0.0351,0.0366,0.037,0.0362,0.0389,0.0395,0.0453,0.0494,0.042,0.0422,0.058,0.0585,0.0589,0.0644,0,0,0,0,0,0,0.022,0.0231,0.0243,0.0273,0.0284,0.0342,0.0327,0.0331,0.0356,0.0356,0.0383,0.0386,0.0389,0.045,0.0456,0.0496,0.0424,0.0576,0.0582,0.0588,0.0638,0.065,0.0659,0,0,0,0,0,0.0216,0.0238,0.0244,0.0253,0.0301,0.0344,0.035,0.0363,0.0357,0.0377,0.0406,0.0386,0.0489,0.0454,0.046,0.0502,0.0574,0.0581,0.0587,0.0633,0.0647,0.0659,0,0,0,0,0,0,0.0204,0.0243,0.0249,0.0283,0.0316,0.0346,0.0363,0.0373,0.0409,0.0412,0.042,0.0428,0.0494,0.0499,0.0459,0.0572,0.053,0.0538,0.0563,0.0577,0.0587,0.0589,0.0426,0,0,0,0,0,0.0206,0.0232,0.0269,0.0299,0.0315,0.0341,0.0358,0.0373,0.0407,0.0422,0.0446,0.0481,0.0526,0.055,0.0585,0.0643,0.0675,0.0678,0.0689,0.0697,0.0708,0.0796,0.0815,0.0613,0.0612,0.0612,0,0,0.021,0.0234,0.025,0.0297,0.032,0.0363,0.0351,0.0389,0.0432,0.0423,0.0491,0.0516,0.0551,0.062,0.0651,0.0629,0.0779,0.0706,0.0713,0.0718,0.0805,0.0825,0.0842,0.0617,0.0616,0.0616,0,0,0.0237,0.0254,0.0287,0.0318,0.036,0.0382,0.0397,0.0442,0.0468,0.0535,0.0547,0.0603,0.0663,0.0703,0.0729,0.0822,0.083,0.0833,0.0887,0.0974,0.099,0.1006,0.1091,0.1113,0.0839,0.0839,0.0839,0,0.024,0.0286,0.0304,0.0346,0.0373,0.0395,0.044,0.0479,0.0541,0.0576,0.0567,0.0685,0.0707,0.08,0.0836,0.0844,0.0894,0.0828,0.0986,0.1001,0.1016,0.1099,0.1123,0.0843,0.0842,0.0842,0.0841,0,0.0296,0.033,0.0353,0.0414,0.0448,0.0489,0.054,0.0586,0.0616,0.0657,0.0751,0.0792,0.0862,0.0882,0.0888,0.1006,0.101,0.0985,0.0945,0.1039,0.1122,0.1146,0.0848,0.0846,0.0845,0.0844,0,0,0.031,0.0377,0.0386,0.0416,0.0482,0.0517,0.0594,0.0671,0.073,0.0791,0.0878,0.0955,0.0973,0.1006,0.1022,0.1093,0.1243,0.1088,0.1091,0.1159,0.1449,0.1348,0.1364,0.1245,0.1249,0.1252,0.1471,0,0.0348,0.0419,0.045,0.0524,0.0562,0.0604,0.0675,0.0748,0.0811,0.0906,0.096,0.1049,0.1023,0.1067,0.1137,0.1221,0.1306,0.1186,0.136,0.1365,0.1253,0.1388,0.1209,0.138,0.1494,0.1498,0.1501,0,0.0395,0.0433,0.0502,0.0571,0.0593,0.0648,0.075,0.0819,0.0946,0.1,0.1089,0.1136,0.1263,0.1218,0.141,0.1338,0.1406,0.1456,0.1466,0.1366,0.1308,0.1304,0.1418,0.154,0.1537,0.1534,0.1532,0,0.0388,0.0468,0.0517,0.0543,0.0633,0.0679,0.0736,0.0851,0.0928,0.1073,0.1149,0.1275,0.137,0.1466,0.1568,0.1512,0.1774,0.1707,0.1683,0.1677,0.1555,0.1529,0.1852,0.1852,0.1852,0.1851,0.185,0,0.0411,0.0451,0.0518,0.0547,0.062,0.0683,0.0787,0.0861,0.0997,0.111,0.12,0.1312,0.144,0.1586,0.1643,0.1753,0.1845,0.173,0.1738,0.1569,0.1544,0.1689,0.1667,0.1859,0.1857,0.1856,0.1854,0,0.0402,0.0443,0.0503,0.0589,0.062,0.0676,0.0807,0.0889,0.1012,0.1167,0.1223,0.1404,0.1591,0.1707,0.19,0.1857,0.1961,0.1972,0.1762,0.1738,0.1788,0.1767,0.1972,0.197,0.1969,0.1968,0.1967,0,0.0402,0.0431,0.0519,0.0555,0.0597,0.0688,0.0759,0.0888,0.0983,0.1215,0.1294,0.1517,0.1643,0.1874,0.1882,0.1979,0.203,0.1835,0.1668,0.1819,0.1807,0.1787,0.1769,0.1557,0.1552,0.1549,0.1546,0,0.0397,0.0429,0.0472,0.0544,0.0614,0.0702,0.0813,0.0882,0.1053,0.1178,0.1367,0.1481,0.168,0.1696,0.179,0.1798,0.179,0.1762,0.2044,0.1515,0.1434,0.1419,0.1414,0.1516,0.1519,0.1521,0.1523,0.1524,0.0386,0.0412,0.0465,0.0538,0.061,0.0699,0.0759,0.0875,0.1003,0.1162,0.1309,0.1407,0.146,0.1489,0.1536,0.156,0.1634,0.1537,0.1546,0.1559,0.1433,0.1349,0.1395,0.1397,0.1399,0.1401,0.1402,0,0.0371,0.0408,0.0458,0.054,0.0601,0.0665,0.0783,0.0821,0.0928,0.1055,0.1172,0.1089,0.1125,0.1248,0.1214,0.1211,0.1188,0.1194,0.115,0.1178,0.1204,0.1058,0.0923,0.0922,0.0922,0.0921,0,0,0.0363,0.0399,0.0431,0.0511,0.0574,0.0647,0.0703,0.0749,0.0807,0.0846,0.0878,0.0957,0.1074,0.092,0.0948,0.0949,0.1049,0.0912,0.128,0.1247,0.1272,0.1373,0.1176,0,0,0,0,0]},{"header":{"parameterUnit":"m.s-1","parameterCategory":2,"la1":30.2991,"la2":30.254,"lo1":-89.0895,"lo2":-89.0444,"dy":0.0017,"dx":0.0017,"nx":28,"ny":28,"refTime":"2024-07-29T21:00:00:Z","depth":"2","parameterNumber":3,"parameterNumberName":"V-component_of_CURRENTS"},"data":[0,0,0,0,0,0,0,0,0,0,0,0,0,0,0,0,0,0,0,0,0,0,0,0,0,0,0,0,0,0,0,0,0,0,0,0,0,0,0,0,0,0,0,0,0,0,0,0,0,0,0,0,0,0,0,0,0,0,0.0128,0.0128,0,0.0151,0.0151,0.0152,0.0182,0.0182,0.0183,0.0183,0.0205,0.0205,0.0205,0,0,0,0,0,0,0,0,0,0,0,0,0,0.0117,0.0118,0.0128,0.0128,0.0128,0.0151,0.0151,0.0152,0.0182,0.0182,0.0183,0.0183,0.0205,0.0205,0.0205,0,0,0,0,0,0,0,0,0,0,0,0,0,0.0132,0.0118,0.0128,0.0144,0.0145,0.015,0.0151,0.0152,0.0182,0.0182,0.0183,0.0183,0.0204,0.0205,0.0205,0.0202,0,0,0.0207,0.0207,0,0,0,0,0,0,0,0,0.0131,0.0133,0.0141,0.0143,0.0144,0.0161,0.0155,0.0167,0.0182,0.0171,0.0183,0.0183,0.0188,0.019,0.0198,0.0203,0.0204,0.0207,0.0207,0.0208,0.0208,0,0,0,0,0,0,0,0.013,0.0132,0.014,0.0141,0.0143,0.0152,0.0154,0.0158,0.018,0.0172,0.0174,0.0171,0.0189,0.0197,0.0198,0.0204,0.0207,0.0208,0.0208,0.0208,0.0199,0.0198,0,0,0,0,0,0,0.0121,0.0131,0.0139,0.014,0.0135,0.0151,0.0154,0.0158,0.018,0.0182,0.0171,0.0173,0.0196,0.0198,0.0199,0.0209,0.0208,0.0208,0.0208,0.02,0.0199,0.0198,0,0,0,0,0,0,0.012,0.0121,0.0138,0.0134,0.0136,0.0151,0.0155,0.0158,0.0173,0.0178,0.0182,0.0183,0.0196,0.0198,0.0211,0.021,0.0208,0.0209,0.02,0.0199,0.0199,0.0221,0,0,0,0,0,0,0.012,0.0121,0.0126,0.0133,0.0136,0.0158,0.0154,0.0158,0.0169,0.0172,0.0189,0.0191,0.0197,0.0211,0.0212,0.021,0.0209,0.0201,0.02,0.0199,0.0221,0.0221,0.0221,0,0,0,0,0,0.012,0.0134,0.0127,0.0128,0.014,0.0158,0.0162,0.0174,0.0169,0.0187,0.019,0.0191,0.0204,0.0211,0.0213,0.0211,0.0201,0.02,0.0199,0.0221,0.0221,0.0221,0,0,0,0,0,0,0.0139,0.0138,0.013,0.0144,0.0153,0.0163,0.0177,0.0176,0.0192,0.0194,0.0195,0.0198,0.0207,0.0201,0.0209,0.0202,0.0198,0.0197,0.0214,0.0214,0.0214,0.0211,0.021,0,0,0,0,0,0.014,0.0145,0.0147,0.0157,0.0163,0.0166,0.0174,0.0181,0.019,0.0199,0.0204,0.0202,0.02,0.0203,0.0206,0.0207,0.0177,0.0201,0.0201,0.0202,0.0198,0.0137,0.0132,0.0194,0.0194,0.0194,0,0,0.0145,0.0147,0.0148,0.016,0.0167,0.0186,0.0174,0.0192,0.0205,0.0197,0.0219,0.021,0.0201,0.0206,0.0207,0.0204,0.017,0.02,0.0201,0.0196,0.0135,0.0129,0.0124,0.0193,0.0193,0.0193,0,0,0.017,0.0165,0.0182,0.0192,0.0202,0.0204,0.0209,0.022,0.0226,0.0238,0.0227,0.0216,0.0224,0.0212,0.0206,0.0204,0.0175,0.0199,0.0198,0.014,0.0134,0.0129,0.0095,0.0086,0.0196,0.0196,0.0196,0,0.0177,0.0195,0.0192,0.0216,0.0219,0.0213,0.0234,0.0243,0.0255,0.0247,0.025,0.0226,0.0225,0.0207,0.0206,0.0206,0.0171,0.0204,0.014,0.0134,0.0128,0.0094,0.0084,0.0197,0.0197,0.0197,0.0197,0,0.0218,0.0231,0.0244,0.0263,0.0273,0.0288,0.0291,0.0297,0.0289,0.0284,0.0266,0.0253,0.023,0.0225,0.022,0.0174,0.0163,0.0151,0.0142,0.0123,0.0089,0.0078,0.0199,0.0198,0.0198,0.0198,0,0,0.0227,0.0264,0.0265,0.0276,0.0293,0.0303,0.0317,0.0317,0.0318,0.0307,0.0294,0.0273,0.0242,0.0231,0.0209,0.0162,0.01,0.0138,0.0134,0.0109,-0.0022,-0.0033,-0.0046,0.0068,0.0066,0.0064,-0.0024,0,0.0254,0.0298,0.0307,0.0338,0.0355,0.0347,0.0362,0.0358,0.0349,0.0341,0.0294,0.0283,0.0251,0.0237,0.0179,0.0132,0.007,0.0126,-0.0004,-0.0008,-0.0012,-0.006,-0.0037,-0.0115,-0.0035,-0.0037,-0.0038,0,0.0287,0.0307,0.0344,0.0362,0.0369,0.0388,0.0384,0.0399,0.038,0.0371,0.0327,0.0297,0.0238,0.021,0.0084,0.0118,0.0039,-0.0007,-0.0012,-0.004,-0.004,-0.0087,-0.0138,-0.0056,-0.0055,-0.0053,-0.0052,0,0.0287,0.0327,0.035,0.0359,0.0388,0.0394,0.0405,0.0402,0.0428,0.0387,0.0395,0.0302,0.0282,0.0156,0.0068,0.006,-0.0066,-0.0088,-0.0179,-0.0179,-0.0194,-0.0193,-0.0211,-0.0211,-0.0211,-0.021,-0.021,0,0.0307,0.0324,0.0354,0.0368,0.0404,0.0407,0.0444,0.044,0.0455,0.0493,0.0409,0.0417,0.0264,0.0186,0.0067,-0.0075,-0.0077,-0.0193,-0.0215,-0.0184,-0.0181,-0.0156,-0.0148,-0.0214,-0.0213,-0.0212,-0.0212,0,0.0318,0.0332,0.037,0.0399,0.0413,0.0442,0.0506,0.0546,0.0532,0.0578,0.0571,0.0506,0.0396,0.0251,0.0075,-0.005,-0.0194,-0.0248,-0.0185,-0.02,-0.0274,-0.0264,-0.0386,-0.0388,-0.0389,-0.039,-0.0391,0,0.0332,0.0354,0.0404,0.0446,0.0468,0.0516,0.0573,0.0591,0.0644,0.0646,0.0681,0.0587,0.0536,0.0278,0.0049,-0.0181,-0.0196,-0.0321,-0.0348,-0.0289,-0.0298,-0.0286,-0.0275,-0.0352,-0.0353,-0.0353,-0.0353,0,0.0375,0.0393,0.0433,0.0513,0.058,0.0662,0.0732,0.078,0.0808,0.0826,0.0843,0.0794,0.0552,0.0312,-0.0002,-0.0146,-0.0286,-0.0338,-0.031,-0.0305,-0.0263,-0.0269,-0.0259,-0.0357,-0.0356,-0.0356,-0.0356,-0.0356,0.0423,0.0469,0.0529,0.0607,0.0687,0.0797,0.0875,0.0935,0.1006,0.102,0.0962,0.0838,0.0541,0.0104,-0.009,-0.0295,-0.0315,-0.0421,-0.0418,-0.0415,-0.0389,-0.0351,-0.0455,-0.0455,-0.0455,-0.0456,-0.0456,0,0.0498,0.055,0.0627,0.074,0.0847,0.0867,0.0986,0.1043,0.1118,0.105,0.1024,0.066,0.0402,0.0123,-0.019,-0.0398,-0.0386,-0.0444,-0.0396,-0.0393,-0.039,-0.0361,-0.0421,-0.0421,-0.0421,-0.0421,0,0,0.0551,0.0637,0.0675,0.0859,0.0943,0.1098,0.1167,0.1199,0.1149,0.1027,0.0884,0.0715,0.0348,0.0098,-0.0139,-0.0266,-0.0278,-0.0285,-0.0299,-0.0212,-0.0206,-0.0372,-0.0323,0,0,0,0,0]}],[{"header":{"parameterUnit":"m.s-1","parameterCategory":2,"la1":30.2991,"la2":30.254,"lo1":-89.0895,"lo2":-89.0444,"dy":0.0017,"dx":0.0017,"nx":28,"ny":28,"refTime":"2024-07-29T21:00:00:Z","depth":"4","parameterNumber":2,"parameterNumberName":"U-component_of_CURRENTS"},"data":[0,0,0,0,0,0,0,0,0,0,0,0,0,0,0,0,0,0,0,0,0,0,0,0,0,0,0,0,0,0,0,0,0,0,0,0,0,0,0,0,0,0,0,0,0,0,0,0,0,0,0,0,0,0,0,0,0,0,0.0189,0.0189,0,0.0215,0.0215,0.0216,0.0243,0.0244,0.0244,0.0244,0.0275,0.0275,0.0276,0,0,0,0,0,0,0,0,0,0,0,0,0,0.0164,0.0164,0.0188,0.0189,0.0189,0.0215,0.0215,0.0216,0.0243,0.0244,0.0244,0.0245,0.0275,0.0275,0.0276,0,0,0,0,0,0,0,0,0,0,0,0,0,0.018,0.0164,0.0188,0.0206,0.0208,0.0215,0.0215,0.0216,0.0243,0.0244,0.0244,0.0245,0.0275,0.0275,0.0276,0.0267,0,0,0.0278,0.0278,0,0,0,0,0,0,0,0,0.0179,0.0181,0.0203,0.0205,0.0207,0.0227,0.0218,0.0233,0.0243,0.0229,0.0244,0.0245,0.0259,0.0261,0.0264,0.0268,0.027,0.0278,0.0278,0.0278,0.0278,0,0,0,0,0,0,0,0.0178,0.018,0.0199,0.0204,0.0206,0.0214,0.0217,0.0221,0.024,0.0231,0.0233,0.0236,0.026,0.0263,0.0265,0.027,0.0278,0.0278,0.0279,0.0279,0.0289,0.0289,0,0,0,0,0,0,0.0175,0.0179,0.0198,0.0199,0.0195,0.0214,0.0217,0.022,0.024,0.0244,0.0236,0.0237,0.0262,0.0264,0.0266,0.0292,0.0278,0.0279,0.0279,0.0289,0.0289,0.0289,0,0,0,0,0,0,0.0174,0.0176,0.0197,0.019,0.0194,0.0214,0.0216,0.022,0.0236,0.0244,0.0248,0.025,0.0262,0.0265,0.0279,0.0292,0.0279,0.028,0.0289,0.0289,0.0289,0.0321,0,0,0,0,0,0,0.0173,0.0176,0.018,0.019,0.0194,0.021,0.0216,0.022,0.0237,0.024,0.0257,0.026,0.0263,0.0278,0.028,0.0292,0.028,0.0289,0.0289,0.0289,0.032,0.0322,0.0323,0,0,0,0,0,0.0172,0.0178,0.018,0.0183,0.0198,0.0211,0.0214,0.0229,0.0237,0.0246,0.0256,0.026,0.0278,0.0279,0.0281,0.0294,0.0289,0.0289,0.0289,0.0319,0.0321,0.0323,0,0,0,0,0,0,0.0165,0.0182,0.0184,0.0193,0.0204,0.0216,0.0228,0.0235,0.025,0.0257,0.0262,0.0265,0.028,0.0278,0.0279,0.0293,0.0283,0.0283,0.0305,0.0307,0.0309,0.0317,0.0281,0,0,0,0,0,0.0165,0.0176,0.0188,0.0194,0.0204,0.0216,0.0225,0.0236,0.0248,0.0256,0.0265,0.0272,0.0277,0.0286,0.0288,0.03,0.0299,0.0306,0.0308,0.031,0.0316,0.0315,0.0318,0.0288,0.0288,0.0288,0,0,0.0159,0.0173,0.0176,0.0194,0.0206,0.0222,0.0224,0.0244,0.0256,0.0256,0.0278,0.028,0.028,0.0293,0.0299,0.0297,0.0319,0.0309,0.0311,0.0317,0.0315,0.0318,0.0321,0.0288,0.0288,0.0288,0,0,0.0161,0.0171,0.0185,0.02,0.0223,0.0232,0.024,0.0258,0.027,0.0286,0.0287,0.0296,0.0306,0.0309,0.0312,0.0322,0.0326,0.0322,0.0346,0.0345,0.0348,0.035,0.0363,0.0366,0.0327,0.0327,0.0327,0,0.0154,0.0175,0.0189,0.0211,0.0225,0.0239,0.0257,0.0268,0.0287,0.0297,0.0298,0.0312,0.0314,0.0327,0.0334,0.0328,0.0333,0.0341,0.0349,0.0351,0.0353,0.0365,0.0369,0.0328,0.0328,0.0328,0.0328,0,0.0169,0.0188,0.02,0.0231,0.0246,0.0266,0.0284,0.0301,0.0315,0.0323,0.0341,0.034,0.0351,0.0349,0.035,0.0365,0.0367,0.035,0.0347,0.0358,0.037,0.0373,0.0331,0.033,0.033,0.0329,0,0,0.0148,0.02,0.0205,0.0226,0.0262,0.0276,0.0302,0.0327,0.0347,0.0359,0.0379,0.0386,0.0388,0.039,0.0386,0.0389,0.0411,0.0384,0.0383,0.0405,0.0426,0.0425,0.0428,0.0399,0.04,0.04,0.0433,0,0.0157,0.0198,0.0222,0.0258,0.0281,0.0306,0.0329,0.0353,0.0371,0.0392,0.0395,0.041,0.0402,0.0411,0.0414,0.0411,0.0419,0.0405,0.0405,0.0405,0.041,0.0431,0.0401,0.0435,0.0436,0.0436,0.0436,0,0.0168,0.0196,0.0232,0.0281,0.0294,0.0316,0.036,0.0381,0.0412,0.0427,0.0442,0.0445,0.0461,0.0443,0.0455,0.0449,0.0445,0.0438,0.0439,0.0429,0.041,0.0418,0.0442,0.0441,0.0441,0.044,0.044,0,0.0153,0.0205,0.0235,0.0252,0.0304,0.0327,0.0355,0.0393,0.0417,0.0448,0.0468,0.0481,0.0492,0.0487,0.0491,0.0474,0.0502,0.0469,0.0464,0.0464,0.0441,0.0438,0.0472,0.0472,0.0472,0.0472,0.0472,0,0.0156,0.0182,0.0234,0.025,0.0291,0.0327,0.0369,0.0398,0.0438,0.0468,0.0484,0.0495,0.0503,0.052,0.051,0.0512,0.0518,0.0479,0.0474,0.0454,0.0452,0.0444,0.044,0.0473,0.0473,0.0472,0.0472,0,0.0138,0.0173,0.0209,0.0264,0.0287,0.0313,0.038,0.0408,0.0449,0.0487,0.0499,0.052,0.0532,0.0551,0.0549,0.054,0.0536,0.0532,0.0538,0.053,0.0493,0.049,0.052,0.0521,0.0521,0.0521,0.0521,0,0.0134,0.0151,0.021,0.0237,0.0265,0.0314,0.0351,0.0406,0.0433,0.049,0.0499,0.0531,0.0541,0.0544,0.0552,0.0561,0.0545,0.0561,0.0501,0.0507,0.0498,0.0495,0.0492,0.0522,0.0522,0.0522,0.0522,0,0.0118,0.0138,0.0165,0.0221,0.0264,0.0308,0.036,0.0377,0.0438,0.0484,0.0493,0.0506,0.0523,0.0518,0.0553,0.0542,0.0561,0.0563,0.0561,0.0504,0.0508,0.0499,0.0496,0.0523,0.0522,0.0522,0.0522,0,0.0102,0.0113,0.0153,0.0201,0.0256,0.0289,0.0316,0.0355,0.0388,0.0456,0.0451,0.0477,0.0505,0.0508,0.0524,0.0542,0.0513,0.05,0.0501,0.05,0.048,0.0482,0.0493,0,0,0,0,0,0.0084,0.0099,0.0137,0.0185,0.0238,0.0269,0.0323,0.0348,0.0405,0.0408,0.0435,0.0446,0.0468,0.0465,0.0474,0.0507,0.0515,0.0518,0.0499,0.0527,0.0526,0.0505,0,0,0,0,0,0,0.0074,0.0101,0.0122,0.0167,0.0198,0.0248,0.0277,0.031,0.0311,0.0368,0.0366,0.0432,0.0437,0.0454,0.0464,0.0474,0.046,0.0547,0.0547,0.0527,0.0526,0.0526,0.0504,0,0,0,0,0]},{"header":{"parameterUnit":"m.s-1","parameterCategory":2,"la1":30.2991,"la2":30.254,"lo1":-89.0895,"lo2":-89.0444,"dy":0.0017,"dx":0.0017,"nx":28,"ny":28,"refTime":"2024-07-29T21:00:00:Z","depth":"4","parameterNumber":3,"parameterNumberName":"V-component_of_CURRENTS"},"data":[0,0,0,0,0,0,0,0,0,0,0,0,0,0,0,0,0,0,0,0,0,0,0,0,0,0,0,0,0,0,0,0,0,0,0,0,0,0,0,0,0,0,0,0,0,0,0,0,0,0,0,0,0,0,0,0,0,0,0.0124,0.0124,0,0.0069,0.0068,0.0068,0.0016,0.0015,0.0015,0.0014,-0.0044,-0.0045,-0.0046,0,0,0,0,0,0,0,0,0,0,0,0,0,0.0142,0.0142,0.0124,0.0124,0.0124,0.0069,0.0068,0.0067,0.0016,0.0015,0.0015,0.0014,-0.0043,-0.0045,-0.0046,0,0,0,0,0,0,0,0,0,0,0,0,0,0.0113,0.0142,0.0125,0.0093,0.009,0.007,0.0068,0.0067,0.0016,0.0015,0.0015,0.0014,-0.0043,-0.0045,-0.0046,-0.0044,0,0,-0.0052,-0.0052,0,0,0,0,0,0,0,0,0.0115,0.0112,0.0098,0.0095,0.0092,0.0051,0.0053,0.0031,0.0016,0.0041,0.0014,0.0014,-0.001,-0.0015,-0.0027,-0.0047,-0.0049,-0.0052,-0.0053,-0.0053,-0.0054,0,0,0,0,0,0,0,0.0117,0.0114,0.01,0.0098,0.0094,0.0067,0.0062,0.0048,0.0018,0.0039,0.0036,0.0034,-0.0013,-0.0025,-0.0029,-0.005,-0.0052,-0.0053,-0.0054,-0.0055,-0.0129,-0.013,0,0,0,0,0,0,0.0132,0.0116,0.0102,0.0099,0.0105,0.0068,0.0062,0.0063,0.0018,0.0011,0.0034,0.0032,-0.0022,-0.0027,-0.0031,-0.0075,-0.0053,-0.0055,-0.0056,-0.0128,-0.0129,-0.0131,0,0,0,0,0,0,0.0132,0.0131,0.0104,0.0108,0.0103,0.0069,0.0069,0.0062,0.004,0.0015,0.0007,0.0019,-0.0023,-0.0029,-0.0065,-0.0076,-0.0056,-0.0057,-0.0127,-0.0129,-0.013,-0.0135,0,0,0,0,0,0,0.0133,0.0132,0.0131,0.0109,0.0103,0.0083,0.007,0.0061,0.0041,0.0037,-0.0,-0.0006,-0.0024,-0.0062,-0.0066,-0.0078,-0.0059,-0.0126,-0.0128,-0.013,-0.0133,-0.0136,-0.0138,0,0,0,0,0,0.0134,0.0133,0.0131,0.0129,0.0106,0.0082,0.0076,0.0048,0.0041,0.0026,-0.0004,-0.0006,-0.0076,-0.0064,-0.0069,-0.0081,-0.0125,-0.0127,-0.0129,-0.0132,-0.0135,-0.0138,0,0,0,0,0,0,0.0134,0.0128,0.0125,0.0121,0.0101,0.0074,0.0059,0.0047,0.0012,0.0006,-0.0017,-0.0026,-0.0065,-0.0072,-0.0058,-0.011,-0.0101,-0.0104,-0.0101,-0.0104,-0.0107,-0.0092,-0.006,0,0,0,0,0,0.0139,0.0138,0.0124,0.0118,0.0111,0.0087,0.0073,0.0056,0.0028,0.0012,-0.0014,-0.0043,-0.0075,-0.0088,-0.0117,-0.0138,-0.014,-0.0151,-0.0153,-0.0155,-0.0147,-0.0158,-0.016,-0.0137,-0.0137,-0.0137,0,0,0.0137,0.0134,0.0132,0.0118,0.0101,0.0082,0.0075,0.0053,0.0032,0.0013,-0.0029,-0.0055,-0.0085,-0.0121,-0.0137,-0.0128,-0.0167,-0.0158,-0.0159,-0.015,-0.0161,-0.0163,-0.0164,-0.0139,-0.0139,-0.0138,0,0,0.0127,0.0131,0.0122,0.0109,0.0089,0.0074,0.007,0.004,0.0021,-0.0013,-0.004,-0.0072,-0.0113,-0.014,-0.0157,-0.0187,-0.0184,-0.0196,-0.019,-0.0202,-0.0203,-0.0204,-0.0222,-0.0225,-0.0192,-0.0192,-0.0192,0,0.0124,0.0116,0.0113,0.0098,0.0089,0.0072,0.0056,0.0033,-0.0007,-0.0018,-0.0028,-0.0095,-0.0122,-0.0162,-0.0178,-0.0192,-0.0196,-0.0175,-0.0203,-0.0204,-0.0205,-0.0223,-0.0226,-0.0192,-0.0192,-0.0192,-0.0192,0,0.0103,0.0097,0.009,0.0071,0.0058,0.0042,0.0021,0.0001,-0.0015,-0.0035,-0.0077,-0.0115,-0.0147,-0.0168,-0.0183,-0.0208,-0.021,-0.0208,-0.019,-0.0207,-0.0226,-0.0229,-0.0193,-0.0193,-0.0192,-0.0192,0,0,0.0093,0.008,0.0076,0.0073,0.0047,0.0038,0.0009,-0.0015,-0.0027,-0.0066,-0.0085,-0.0143,-0.015,-0.017,-0.0193,-0.0205,-0.0228,-0.0206,-0.0206,-0.0214,-0.0255,-0.0237,-0.0238,-0.0226,-0.0226,-0.0226,-0.0268,0,0.0076,0.006,0.0053,0.0034,0.0027,0.0014,-0.0006,-0.0028,-0.005,-0.0075,-0.0107,-0.0141,-0.0155,-0.017,-0.0184,-0.0222,-0.0234,-0.0217,-0.0244,-0.0245,-0.0219,-0.024,-0.0227,-0.0271,-0.0271,-0.0272,-0.0272,0,0.0053,0.0051,0.0037,0.0036,0.0032,0.0016,0.0003,-0.0018,-0.0053,-0.0068,-0.0096,-0.0123,-0.0163,-0.0164,-0.0217,-0.0204,-0.0224,-0.0247,-0.0249,-0.0228,-0.0232,-0.0248,-0.0277,-0.0277,-0.0276,-0.0276,-0.0276,0,0.0055,0.0041,0.0038,0.0034,0.0023,0.0018,0.001,-0.0017,-0.0034,-0.0064,-0.0081,-0.012,-0.0151,-0.0176,-0.0226,-0.0219,-0.0278,-0.0274,-0.0278,-0.0278,-0.0278,-0.0276,-0.0297,-0.0297,-0.0297,-0.0297,-0.0297,0,0.0044,0.0041,0.0043,0.0041,0.0039,0.0031,0.0019,0.0007,-0.0022,-0.004,-0.0074,-0.0096,-0.0153,-0.0196,-0.0225,-0.0264,-0.0277,-0.0278,-0.0285,-0.0282,-0.028,-0.0281,-0.0278,-0.0299,-0.0298,-0.0298,-0.0298,0,0.0041,0.004,0.0041,0.0041,0.0039,0.004,0.0021,0.0008,-0.0011,-0.0037,-0.0048,-0.0095,-0.0135,-0.0193,-0.0248,-0.0269,-0.0305,-0.0312,-0.0316,-0.0322,-0.0297,-0.0295,-0.0317,-0.0317,-0.0316,-0.0316,-0.0316,0,0.0038,0.0038,0.0044,0.0041,0.0038,0.0035,0.0024,0.0011,-0.0001,-0.003,-0.0042,-0.0089,-0.0118,-0.0188,-0.0237,-0.0295,-0.0296,-0.0327,-0.0299,-0.0294,-0.0298,-0.0296,-0.0294,-0.0315,-0.0315,-0.0315,-0.0315,0,0.0031,0.0034,0.0036,0.0035,0.0029,0.0025,0.0017,0.0011,-0.0001,-0.0021,-0.0033,-0.0069,-0.0116,-0.0165,-0.0221,-0.0257,-0.0314,-0.0323,-0.0324,-0.0298,-0.0292,-0.0297,-0.0295,-0.0314,-0.0314,-0.0314,-0.0314,0,0.0021,0.0023,0.0024,0.0025,0.002,0.0018,0.0017,0.0011,0.0003,-0.0015,-0.0014,-0.0058,-0.0089,-0.0146,-0.019,-0.0233,-0.0231,-0.0247,-0.0251,-0.0253,-0.0217,-0.0198,-0.0197,0,0,0,0,0,0.0006,0.0005,0.0006,0.0012,0.0012,0.0012,0.0008,0.0008,0.0007,0.0004,-0.0002,-0.0032,-0.0089,-0.0116,-0.0151,-0.0185,-0.0247,-0.0228,-0.0269,-0.0308,-0.031,-0.0276,0,0,0,0,0,0,-0.0011,-0.001,0.0002,0.0005,0.0007,0.0007,0.0009,0.0009,0.0014,0.001,-0.0015,-0.0036,-0.0089,-0.0062,-0.0148,-0.0162,-0.0193,-0.0257,-0.0258,-0.0308,-0.0309,-0.031,-0.0275,0,0,0,0,0]}]]